FW7253 Weather Reports


time (UTC)temp
C
wind
direction
speed
KPH
gust
KPH
rain 1hr
cm
rain 24hr
cm
rain mn
cm
humidity
%
barometer
mb
20260504110533 15 252 6.4 20.9 0.00 0.00 0.00 36 1006.0
20260504100532 13 293 4.8 19.3 0.00 0.00 0.00 37 1006.2
20260504081541 11 334 9.7 22.5 0.00 0.00 0.00 48 1006.4
20260504081033 10 343 11.3 22.5 0.00 0.00 0.00 49 1006.4
20260504080532 10 4 9.7 19.3 0.00 0.00 0.00 50 1006.4
20260504050540 5 336 0.0 4.8 0.00 0.00 0.00 92 1005.3
20260504045533 5 2 3.2 6.4 0.00 0.00 0.00 92 1005.4
20260504045033 5 354 3.2 6.4 0.00 0.00 0.00 93 1005.4
20260504044546 5 6 1.6 4.8 0.00 0.00 0.00 92 1005.3
20260504044034 5 18 0.0 1.6 0.00 0.00 0.00 92 1005.3
20260504043533 5 338 0.0 1.6 0.00 0.00 0.00 93 1005.3
20260504043042 5 0 0.0 1.6 0.00 0.00 0.00 92 1005.2
20260504042532 3 0 0.0 1.6 0.00 0.00 0.00 92 1005.3
20260504042032 3 0 0.0 0.0 0.00 0.00 0.00 92 1005.3
20260504041546 4 0 0.0 0.0 0.00 0.00 0.00 91 1005.3
20260504041032 4 0 0.0 0.0 0.00 0.00 0.00 91 1005.3
20260504040533 4 0 0.0 0.0 0.00 0.00 0.00 91 1005.2
20260504040053 4 0 0.0 1.6 0.00 0.00 0.00 91 1005.3
20260504035533 4 0 0.0 1.6 0.00 0.00 0.00 90 1005.3
20260504035032 5 0 0.0 1.6 0.00 0.00 0.00 90 1005.3
20260504034557 5 0 0.0 4.8 0.00 0.00 0.00 90 1005.4
20260504034033 5 0 0.0 4.8 0.00 0.00 0.00 90 1005.5
20260504033533 5 358 0.0 4.8 0.00 0.00 0.00 90 1005.4
20260504033114 6 344 0.0 4.8 0.00 0.00 0.00 90 1005.4
20260504032533 6 0 3.2 4.8 0.00 0.00 0.00 90 1005.3
20260504032032 6 1 1.6 3.2 0.00 0.00 0.00 89 1005.4
20260504031538 6 0 0.0 0.0 0.00 0.00 0.00 89 1005.5
20260504031035 6 0 0.0 0.0 0.00 0.00 0.00 89 1005.5
20260504030533 6 0 0.0 0.0 0.00 0.00 0.00 89 1005.6
20260504030047 7 0 0.0 0.0 0.00 0.00 0.00 88 1005.6
20260504025534 7 0 0.0 0.0 0.00 0.00 0.00 88 1005.5
20260504025033 7 0 0.0 0.0 0.00 0.00 0.00 88 1005.5
20260504024541 7 0 0.0 1.6 0.00 0.00 0.00 88 1005.7
20260504024033 7 0 0.0 4.8 0.00 0.00 0.00 88 1005.7
20260504023533 7 0 0.0 4.8 0.00 0.00 0.00 88 1005.6
20260504023057 7 227 1.6 4.8 0.00 0.00 0.00 88 1005.6
20260504022533 7 0 0.0 1.6 0.00 0.00 0.00 87 1005.5
20260504022032 7 0 0.0 6.4 0.00 0.00 0.00 87 1005.7
20260504021546 7 0 0.0 6.4 0.00 0.00 0.00 87 1005.7
20260504021032 7 229 0.0 3.2 0.00 0.00 0.00 87 1005.7
20260504020533 7 0 0.0 4.8 0.00 0.00 0.00 87 1005.8
20260504020057 7 0 0.0 4.8 0.00 0.00 0.00 87 1005.7
20260504015532 7 212 0.0 3.2 0.00 0.00 0.00 88 1005.8
20260504015036 7 286 0.0 4.8 0.00 0.00 0.00 87 1005.9
20260504014548 7 0 0.0 4.8 0.00 0.00 0.00 87 1005.8
20260504014032 8 306 0.0 4.8 0.00 0.00 0.00 87 1005.8
20260504013533 8 0 0.0 3.2 0.00 0.00 0.00 88 1005.8
20260504013045 8 0 0.0 4.8 0.00 0.00 0.00 87 1005.9
20260504012533 8 269 0.0 4.8 0.00 0.00 0.00 88 1005.8
20260504012033 8 0 0.0 3.2 0.00 0.00 0.00 89 1005.9
20260504011540 8 0 0.0 1.6 0.00 0.00 0.00 89 1006.0
20260504011032 8 0 0.0 1.6 0.00 0.00 0.00 89 1006.0
20260504010532 8 0 0.0 1.6 0.00 0.00 0.00 89 1006.0
20260504010047 8 275 0.0 1.6 0.00 0.00 0.00 88 1006.1
20260504005532 8 0 0.0 3.2 0.00 0.00 0.00 88 1006.2
20260504005032 8 0 0.0 3.2 0.00 0.00 0.00 88 1006.1
20260504004559 8 0 0.0 6.4 0.00 0.00 0.00 88 1006.2
20260504004033 8 0 1.6 6.4 0.00 0.00 0.00 88 1006.2
20260504003532 8 158 1.6 6.4 0.00 0.00 0.00 88 1006.1
20260504003038 8 0 0.0 4.8 0.00 0.00 0.00 89 1006.2
20260504002533 8 165 0.0 3.2 0.00 0.00 0.00 89 1006.4
20260504002033 8 0 0.0 1.6 0.00 0.00 0.00 89 1006.4
20260504001541 8 0 0.0 1.6 0.00 0.00 0.00 89 1006.5
20260504001032 8 0 0.0 3.2 0.00 0.00 0.00 89 1006.6
20260504000533 8 211 0.0 3.2 0.00 0.00 0.00 89 1006.5
20260504000041 8 0 0.0 4.8 0.00 0.00 0.00 89 1006.6
20260503235533 8 0 0.0 4.8 0.00 0.00 0.00 90 1006.6
20260503235033 8 0 0.0 1.6 0.00 0.00 0.00 90 1006.6
20260503234543 8 0 0.0 3.2 0.00 0.00 0.00 90 1006.6
20260503234033 8 169 0.0 3.2 0.00 0.00 0.00 90 1006.8
20260503233533 8 0 0.0 3.2 0.00 0.00 0.00 91 1006.8
20260503233038 8 198 0.0 3.2 0.00 0.00 0.00 91 1006.7
20260503232532 8 0 1.6 3.2 0.00 0.00 0.00 91 1006.9
20260503232032 8 0 0.0 1.6 0.00 0.00 0.00 91 1007.1
20260503231538 8 0 0.0 0.0 0.00 0.00 0.00 91 1007.1
20260503231032 8 0 0.0 1.6 0.00 0.00 0.00 91 1007.2
20260503230536 8 0 0.0 1.6 0.00 0.00 0.00 91 1007.3
20260503230048 8 293 0.0 1.6 0.00 0.00 0.00 91 1007.3
20260503225534 8 219 0.0 1.6 0.00 0.00 0.00 91 1007.3
20260503225034 8 0 0.0 3.2 0.00 0.00 0.00 91 1007.4
20260503224541 8 0 0.0 6.4 0.00 0.00 0.00 91 1007.3
20260503224035 8 127 1.6 6.4 0.00 0.00 0.00 91 1007.2
20260503223535 8 0 0.0 1.6 0.00 0.00 0.00 91 1007.2
20260503223057 8 0 0.0 3.2 0.00 0.00 0.00 91 1007.3
20260503222534 8 0 0.0 4.8 0.00 0.00 0.00 91 1007.4
20260503222034 8 189 0.0 4.8 0.00 0.00 0.00 90 1007.4
20260503221552 8 83 0.0 4.8 0.00 0.00 0.00 90 1007.3
20260503221037 8 0 0.0 3.2 0.00 0.00 0.00 90 1007.4
20260503220535 8 0 0.0 3.2 0.00 0.00 0.00 90 1007.4
20260503220049 8 151 0.0 3.2 0.00 0.00 0.00 90 1007.4
20260503215534 8 140 0.0 3.2 0.00 0.00 0.00 90 1007.4
20260503215034 8 166 0.0 4.8 0.00 0.00 0.00 90 1007.5
20260503214545 8 172 1.6 4.8 0.00 0.00 0.00 89 1007.5
20260503214038 8 159 1.6 4.8 0.00 0.00 0.00 89 1007.4
20260503213535 8 108 0.0 3.2 0.00 0.00 0.00 89 1007.6
20260503213103 8 0 0.0 3.2 0.00 0.00 0.00 89 1007.6
20260503212535 8 144 0.0 4.8 0.00 0.00 0.00 89 1007.6
20260503212033 8 0 1.6 4.8 0.00 0.00 0.00 89 1007.6
20260503211544 8 0 0.0 4.8 0.00 0.00 0.00 89 1007.7
20260503211034 8 155 0.0 4.8 0.00 0.00 0.00 89 1007.7
20260503210538 8 168 1.6 4.8 0.00 0.00 0.00 89 1007.8
20260503210057 8 129 0.0 4.8 0.00 0.00 0.00 88 1007.7
20260503205535 9 116 1.6 4.8 0.00 0.00 0.00 88 1007.9
20260503205035 9 119 1.6 4.8 0.00 0.00 0.00 88 1008.0
20260503204553 9 0 1.6 6.4 0.00 0.00 0.00 87 1007.9
20260503204034 9 131 0.0 6.4 0.00 0.00 0.00 87 1008.0
20260503203534 9 210 3.2 8.0 0.00 0.00 0.00 86 1008.0
20260503203056 9 0 0.0 9.7 0.00 0.00 0.00 85 1008.1
20260503202535 9 150 4.8 14.5 0.00 0.00 0.00 84 1008.2
20260503202035 9 203 8.0 14.5 0.00 0.00 0.00 84 1008.2
20260503201547 9 114 3.2 11.3 0.00 0.00 0.00 85 1008.3
20260503201034 9 208 3.2 11.3 0.00 0.00 0.00 85 1008.3
20260503200534 9 186 4.8 11.3 0.00 0.00 0.00 85 1008.3
20260503200051 9 207 4.8 11.3 0.00 0.00 0.00 85 1008.3
20260503195535 9 227 6.4 11.3 0.00 0.00 0.00 85 1008.3
20260503195035 9 186 6.4 16.1 0.00 0.00 0.00 86 1008.3
20260503194547 9 180 6.4 16.1 0.00 0.00 0.00 86 1008.3
20260503194035 9 200 6.4 11.3 0.00 0.00 0.00 86 1008.3
20260503193536 9 176 6.4 11.3 0.00 0.00 0.00 86 1008.5
20260503193050 9 260 3.2 19.3 0.00 0.00 0.00 86 1008.5
20260503192533 9 191 6.4 19.3 0.00 0.00 0.00 86 1008.5
20260503192035 9 143 3.2 12.9 0.00 0.00 0.00 86 1008.3
20260503191541 10 176 4.8 11.3 0.00 0.00 0.00 86 1008.5
20260503191035 9 97 4.8 11.3 0.00 0.00 0.00 86 1008.5
20260503190536 10 132 4.8 11.3 0.00 0.00 0.00 86 1008.5
20260503190037 10 183 4.8 11.3 0.00 0.00 0.00 85 1008.3
20260503185534 10 252 3.2 11.3 0.00 0.00 0.00 86 1008.3
20260503185035 10 118 4.8 11.3 0.00 0.00 0.00 85 1008.4
20260503184550 10 103 3.2 11.3 0.00 0.00 0.00 85 1008.3
20260503184040 10 213 3.2 11.3 0.00 0.00 0.00 85 1008.3
20260503183535 10 191 4.8 12.9 0.00 0.00 0.00 84 1008.3
20260503183100 10 115 6.4 17.7 0.00 0.00 0.00 85 1008.3
20260503182536 10 166 3.2 17.7 0.00 0.00 0.00 84 1008.4
20260503182035 10 115 4.8 17.7 0.00 0.00 0.00 84 1008.3
20260503181540 10 131 4.8 12.9 0.00 0.00 0.00 83 1008.3
20260503181035 10 115 3.2 12.9 0.00 0.00 0.00 83 1008.3
20260503180535 10 179 6.4 12.9 0.00 0.00 0.00 83 1008.3
20260503180046 10 90 6.4 14.5 0.00 0.00 0.00 83 1008.3
20260503175534 10 114 6.4 14.5 0.00 0.00 0.00 83 1008.3
20260503175036 10 151 4.8 12.9 0.00 0.00 0.00 82 1008.2
20260503174547 10 155 3.2 12.9 0.00 0.00 0.00 82 1008.3
20260503174035 10 161 6.4 17.7 0.00 0.00 0.00 81 1008.3
20260503173535 10 160 8.0 17.7 0.00 0.00 0.00 80 1008.2
20260503173112 10 192 3.2 14.5 0.00 0.00 0.00 79 1008.1
20260503172536 11 200 6.4 12.9 0.00 0.00 0.00 79 1008.3
20260503172034 11 214 4.8 11.3 0.00 0.00 0.00 79 1008.3
20260503171535 11 101 4.8 12.9 0.00 0.00 0.00 78 1008.3
20260503171034 11 102 3.2 12.9 0.00 0.00 0.00 78 1008.3
20260503170534 11 138 6.4 12.9 0.00 0.00 0.00 77 1008.6
20260503150535 12 86 6.4 17.7 0.00 0.08 0.00 66 1009.2
20260503131037 12 252 6.4 14.5 0.00 0.08 0.00 63 1010.6
20260503130536 12 103 6.4 14.5 0.00 0.08 0.00 61 1010.7